N2RFA-13 Weather Reports


Display with metric or nautical units.
time (UTC)temp
F
wind
direction
speed
MPH
gust
MPH
rain 1hr
in
rain 24hr
in
rain mn
in
humidity
%
barometer
mb
20260508013001 47 124 0.0 0.0 0.00 0.11 0.11 70 1010.3
20260508011603 47 124 0.0 0.0 0.00 0.11 0.11 68 1010.4
20260508010059 49 124 0.0 0.0 0.00 0.11 0.11 68 1010.2
20260508004602 49 124 0.0 0.0 0.00 0.12 0.11 66 1010.2
20260508003105 50 124 0.0 0.0 0.00 0.12 0.11 61 1009.9
20260508001558 52 124 0.0 0.0 0.00 0.12 0.11 61 1009.7
20260508000057 53 124 0.0 1.0 0.00 0.12 0.11 56 1009.5
20260507234557 53 124 0.0 1.0 0.00 0.12 0.11 53 1009.2
20260507233105 54 124 0.0 1.0 0.00 0.12 0.11 54 1009.3
20260507231556 55 124 0.0 0.0 0.00 0.12 0.11 53 1009.2
20260507230056 56 124 0.0 1.0 0.00 0.12 0.11 48 1009.1
20260507224559 57 124 0.0 3.0 0.00 0.12 0.11 45 1009.1
20260507223101 57 134 0.0 1.0 0.00 0.12 0.11 48 1008.8
20260507221554 58 126 0.0 1.0 0.00 0.12 0.11 46 1009.0
20260507220053 58 126 0.0 1.0 0.00 0.12 0.11 44 1009.1
20260507214605 59 125 0.0 1.0 0.00 0.12 0.11 41 1009.2
20260507213103 59 94 0.0 1.0 0.00 0.12 0.11 41 1009.2
20260507211552 60 116 0.0 6.0 0.00 0.12 0.11 39 1009.1
20260507210051 61 128 0.0 5.0 0.00 0.12 0.11 39 1009.0
20260507204550 61 178 0.0 2.0 0.00 0.12 0.11 39 1008.8
20260507203050 61 117 0.0 3.0 0.00 0.12 0.11 39 1008.9
20260507201550 61 125 1.0 4.0 0.00 0.12 0.11 39 1008.8
20260507200049 62 74 0.0 2.0 0.00 0.12 0.11 39 1008.7
20260507194614 62 128 0.0 5.0 0.00 0.13 0.11 38 1008.8
20260507193046 62 194 0.0 4.0 0.00 0.13 0.11 40 1008.9
20260507191544 62 277 0.0 4.0 0.00 0.13 0.11 41 1009.2
20260507190050 63 296 1.0 4.0 0.00 0.13 0.11 39 1009.3
20260507184541 63 113 0.0 3.0 0.00 0.15 0.11 39 1009.4
20260507183045 63 117 0.0 5.0 0.00 0.15 0.11 39 1009.6
20260507181541 62 131 0.0 3.0 0.00 0.15 0.11 42 1009.8
20260507180039 62 117 0.0 4.0 0.00 0.15 0.11 43 1010.1
20260507174544 62 117 0.0 3.0 0.00 0.16 0.11 38 1010.3
20260507173053 63 194 0.0 6.0 0.00 0.16 0.11 43 1010.5
20260507171544 63 109 0.0 3.0 0.00 0.16 0.11 40 1010.8
20260507170035 63 194 1.0 5.0 0.00 0.16 0.11 42 1011.0
20260507164547 64 194 0.0 4.0 0.00 0.16 0.11 41 1011.2
20260507163034 64 178 1.0 4.0 0.00 0.16 0.11 37 1011.2
20260507161540 63 126 0.0 3.0 0.00 0.16 0.11 41 1011.5
20260507160036 63 133 0.0 3.0 0.00 0.16 0.11 41 1011.6
20260507154526 62 194 0.0 3.0 0.00 0.16 0.11 44 1011.7
20260507153027 61 178 0.0 3.0 0.00 0.16 0.11 48 1011.8
20260507151522 60 125 0.0 3.0 0.00 0.16 0.11 48 1012.1
20260507150017 0 0.0 0.0 0.00 0.16 0.11 1012.2
20260507144514 0 0.0 0.0 0.00 0.16 0.11 1012.3
20260507143018 0 0.0 0.0 0.00 0.16 0.11 1012.3
20260507141504 0 0.0 0.0 0.00 0.16 0.11 1012.3
20260507140101 0 0.0 0.0 0.00 0.16 0.11 1012.3
20260507134602 0 0.0 0.0 0.00 0.16 0.11 1012.3
20260507133052 0 0.0 0.0 0.00 0.16 0.11 1012.4
20260507131548 0 0.0 0.0 0.00 0.16 0.11 1012.3
20260507130043 0 0.0 0.0 0.00 0.16 0.11 1012.1
20260507124539 0 0.0 0.0 0.00 0.16 0.11 1012.1
20260507123040 0 0.0 0.0 0.00 0.16 0.11 1011.9
20260507121530 0 0.0 0.0 0.00 0.16 0.11 1012.1
20260507120039 0 0.0 0.0 0.00 0.16 0.11 1011.9
20260507114520 0 0.0 0.0 0.00 0.16 0.11 1011.9
20260507113034 0 0.0 0.0 0.00 0.16 0.11 1011.8
20260507111512 0 0.0 0.0 0.00 0.16 0.11 1011.7
20260507110011 0 191 0.0 0.0 0.00 0.16 0.11 1011.5
20260507104507 46 194 0.0 0.0 0.00 0.16 0.11 92 1011.5
20260507103008 46 194 0.0 0.0 0.00 0.16 0.11 92 1011.0
20260507101507 45 194 0.0 2.0 0.00 0.16 0.11 92 1010.8
20260507100004 45 194 0.0 0.0 0.00 0.16 0.11 93 1010.7
20260507094504 45 300 0.0 1.0 0.01 0.16 0.11 93 1010.4
20260507093002 45 299 0.0 0.0 0.01 0.16 0.11 92 1010.5
20260507091501 45 299 0.0 0.0 0.01 0.16 0.11 92 1010.3
20260507090100 46 299 0.0 1.0 0.01 0.16 0.11 92 1010.4
20260507084603 46 123 0.0 1.0 0.00 0.15 0.10 92 1010.5
20260507083058 46 125 0.0 0.0 0.00 0.15 0.10 92 1010.5
20260507081557 46 126 0.0 0.0 0.00 0.15 0.10 92 1010.4
20260507080056 47 126 0.0 1.0 0.01 0.15 0.10 92 1010.6
20260507074554 47 130 0.0 1.0 0.02 0.15 0.10 92 1010.6
20260507073128 47 130 0.0 1.0 0.04 0.15 0.10 93 1010.8
20260507071553 47 130 0.0 0.0 0.06 0.15 0.10 92 1010.9
20260507070053 47 130 0.0 0.0 0.06 0.14 0.09 91 1010.9
20260507064608 48 130 0.0 1.0 0.06 0.13 0.08 91 1010.7
20260507063057 48 316 0.0 1.0 0.05 0.11 0.06 90 1010.4
20260507061547 49 118 0.0 2.0 0.04 0.09 0.04 91 1010.7
20260507060051 49 133 0.0 0.0 0.03 0.08 0.03 90 1010.5
20260507054542 49 131 0.0 1.0 0.02 0.07 0.02 89 1010.2
20260507053039 50 134 0.0 1.0 0.01 0.06 0.01 87 1009.8
20260507051538 50 133 0.0 1.0 0.00 0.05 0.00 87 1009.7
20260507050037 51 143 0.0 1.0 0.00 0.05 0.00 87 1009.9
20260507044535 51 122 0.0 1.0 0.00 0.05 0.00 87 1010.0
20260507043034 51 124 0.0 2.0 0.00 0.05 0.00 87 1010.1
20260507041542 51 124 0.0 1.0 0.00 0.05 0.00 87 1010.1
20260507040033 51 125 0.0 3.0 0.00 0.05 0.00 86 1010.0
20260507034540 52 121 0.0 1.0 0.00 0.05 0.05 86 1009.8
20260507033028 52 130 0.0 1.0 0.00 0.05 0.05 87 1009.8
20260507031527 52 121 0.0 1.0 0.00 0.05 0.05 87 1009.7
20260507030024 52 136 0.0 1.0 0.00 0.05 0.05 87 1009.8
20260507024523 53 130 0.0 2.0 0.00 0.05 0.05 88 1009.8
20260507023021 54 146 0.0 2.0 0.00 0.05 0.05 87 1009.9
20260507021519 54 129 0.0 2.0 0.00 0.05 0.05 87 1010.2
20260507020018 55 122 0.0 3.0 0.00 0.05 0.05 89 1010.2
20260507014519 56 128 0.0 1.0 0.00 0.05 0.05 90 1009.9